Monistrol de Calders





Hora UTC 16:15
Temperatura 29.8 ºC
Humitat 39.0 %
Pressió 1017.3 hPa
Pluja 0.0 mm
Velocitat vent 19.3 km/h
Direcció vent SE

Dades diàries 2020-07-05



Hora UTC (hivern +1h; estiu +2h)
Temperatura (ºC) Humitat (%) Pressió (hPa) Velocitat vent (km/h) Precipitació (mm)
Hora UTC Aire Humitat Pressió Vel. Dir. Vel. Max Dir. Intent. màx 5 min.
00:05 16.6 87.0 1022.0 4.8 SSE 4.8 0.0
00:10 16.6 87.0 1021.9 3.2 SSE 8.0 0.0
00:15 16.4 87.0 1022.0 4.8 SSE 6.4 0.0
00:20 16.3 87.0 1021.9 3.2 S 6.4 0.0
00:25 16.3 88.0 1021.9 1.6 S 6.4 0.0
00:30 16.2 87.0 1021.7 0.0 S 4.8 0.0
00:35 16.2 88.0 1021.7 0.0 S 3.2 0.0
00:40 16.2 87.0 1021.7 1.6 S 3.2 0.0
00:45 16.0 87.0 1021.6 1.6 SE 4.8 0.0
00:50 15.9 88.0 1021.5 3.2 SSE 4.8 0.0
00:55 15.8 87.0 1021.4 1.6 SSE 4.8 0.0
01:00 15.7 87.0 1021.4 0.0 SSE 4.8 0.0
01:05 15.7 88.0 1021.4 0.0 SSE 4.8 0.0
01:10 15.6 88.0 1021.4 0.0 SSE 4.8 0.0
01:15 15.6 88.0 1021.3 0.0 SSE 3.2 0.0
01:20 15.5 88.0 1021.3 0.0 SSE 1.6 0.0
01:25 15.4 88.0 1021.3 4.8 SSE 4.8 0.0
01:30 15.3 88.0 1021.2 0.0 SSE 8.0 0.0
01:35 15.3 88.0 1021.2 1.6 SSE 4.8 0.0
01:40 15.2 88.0 1021.1 3.2 SSE 8.0 0.0
01:45 15.2 88.0 1021.1 1.6 SSE 8.0 0.0
01:50 15.1 88.0 1021.0 0.0 SSE 4.8 0.0
01:55 15.1 88.0 1021.0 0.0 SSE 1.6 0.0
02:00 14.9 88.0 1020.9 0.0 SSE 1.6 0.0
02:05 14.9 88.0 1021.0 1.6 SSE 1.6 0.0
02:10 14.8 88.0 1020.9 0.0 SSE 3.2 0.0
02:15 14.8 88.0 1020.9 1.6 SSE 3.2 0.0
02:20 14.8 88.0 1020.9 0.0 SSE 3.2 0.0
02:25 14.8 88.0 1020.8 0.0 SSE 3.2 0.0
02:30 14.7 88.0 1020.7 0.0 SSE 3.2 0.0
02:35 14.7 88.0 1020.7 0.0 SSE 1.6 0.0
02:40 14.7 89.0 1020.8 0.0 SSE 0.0 0.0
02:45 14.7 89.0 1020.8 0.0 SSE 0.0 0.0
02:50 14.6 88.0 1020.8 0.0 SSE 0.0 0.0
02:55 14.5 89.0 1020.8 1.6 SSE 1.6 0.0
03:00 14.5 89.0 1020.8 0.0 SSE 1.6 0.0
03:05 14.4 89.0 1020.8 1.6 SSE 1.6 0.0
03:10 14.4 89.0 1020.8 0.0 SSE 1.6 0.0
03:15 14.4 89.0 1020.8 0.0 SSE 0.0 0.0
03:20 14.4 89.0 1020.8 0.0 SSE 0.0 0.0
03:25 14.4 89.0 1020.8 0.0 SSE 0.0 0.0
03:30 14.3 89.0 1020.8 0.0 SSE 0.0 0.0
03:35 14.3 88.0 1020.8 0.0 SSE 0.0 0.0
03:40 14.2 89.0 1020.8 0.0 SSE 0.0 0.0
03:45 14.2 89.0 1020.8 0.0 SSE 0.0 0.0
03:50 14.1 89.0 1020.8 0.0 SSE 0.0 0.0
03:55 14.1 89.0 1020.9 0.0 SSE 0.0 0.0
04:00 14.1 89.0 1020.8 0.0 SSE 0.0 0.0
04:05 14.1 89.0 1020.8 0.0 SSE 1.6 0.0
04:10 14.1 89.0 1020.9 0.0 SSE 1.6 0.0
04:15 14.1 89.0 1020.9 0.0 SSE 3.2 0.0
04:20 14.1 89.0 1020.9 0.0 SSE 3.2 0.0
04:25 14.1 89.0 1021.0 0.0 SSE 0.0 0.0
04:30 14.0 89.0 1021.0 0.0 SSE 0.0 0.0
04:35 14.0 89.0 1021.0 0.0 SSE 0.0 0.0
04:40 13.9 89.0 1020.9 0.0 SSE 3.2 0.0
04:45 13.9 89.0 1021.0 0.0 SSE 3.2 0.0
04:50 13.9 89.0 1020.9 0.0 SSE 1.6 0.0
04:55 13.9 89.0 1020.9 0.0 SSE 3.2 0.0
05:00 14.0 90.0 1020.9 0.0 SSE 3.2 0.0
05:05 14.1 89.0 1021.0 0.0 SSE 3.2 0.0
05:10 14.1 89.0 1021.0 0.0 SSE 0.0 0.0
05:15 14.1 89.0 1021.0 0.0 SSE 1.6 0.0
05:20 14.1 89.0 1021.0 0.0 SSE 1.6 0.0
05:25 14.2 90.0 1021.1 0.0 SSE 1.6 0.0
05:30 14.6 90.0 1021.0 0.0 SSE 0.0 0.0
05:35 14.7 90.0 1021.0 0.0 SSE 1.6 0.0
05:40 15.0 90.0 1021.0 0.0 SSE 0.0 0.0
05:45 15.3 90.0 1021.0 0.0 SSE 0.0 0.0
05:50 15.6 89.0 1021.1 0.0 SSE 0.0 0.0
05:55 15.8 89.0 1021.1 0.0 SSE 0.0 0.0
06:00 16.1 89.0 1021.1 0.0 SSE 0.0 0.0
06:05 16.4 88.0 1021.1 0.0 SSE 0.0 0.0
06:10 16.7 87.0 1021.1 0.0 SSE 0.0 0.0
06:15 16.9 86.0 1021.1 0.0 SSE 0.0 0.0
06:20 17.3 85.0 1021.1 0.0 SSE 0.0 0.0
06:25 17.6 85.0 1021.2 0.0 SSE 0.0 0.0
06:30 17.8 84.0 1021.2 0.0 SSE 0.0 0.0
06:35 18.1 84.0 1021.2 0.0 SSE 0.0 0.0
06:40 18.5 83.0 1021.2 0.0 SSE 0.0 0.0
06:45 18.9 82.0 1021.1 0.0 SSE 0.0 0.0
06:50 19.4 81.0 1021.2 0.0 SSE 0.0 0.0
06:55 19.9 79.0 1021.2 0.0 SSE 0.0 0.0
07:00 20.3 78.0 1021.2 0.0 SSE 0.0 0.0
07:05 20.7 77.0 1021.3 0.0 SSE 0.0 0.0
07:10 21.0 77.0 1021.4 0.0 SSE 0.0 0.0
07:15 21.4 75.0 1021.4 0.0 SSE 3.2 0.0
07:20 21.7 74.0 1021.4 0.0 SSE 3.2 0.0
07:25 21.9 73.0 1021.4 0.0 SSE 3.2 0.0
07:30 22.1 74.0 1021.4 0.0 SSE 3.2 0.0
07:35 22.5 73.0 1021.4 0.0 SSE 3.2 0.0
07:40 22.9 72.0 1021.4 0.0 SSE 3.2 0.0
07:45 23.1 73.0 1021.4 0.0 SSE 3.2 0.0
07:50 23.3 71.0 1021.4 1.6 NE 6.4 0.0
07:55 23.6 70.0 1021.4 0.0 NE 6.4 0.0
08:00 23.8 70.0 1021.4 0.0 NE 4.8 0.0
08:05 23.9 69.0 1021.3 0.0 NE 4.8 0.0
08:10 24.2 68.0 1021.3 1.6 NE 3.2 0.0
08:15 24.4 67.0 1021.3 1.6 NE 4.8 0.0
08:20 24.7 65.0 1021.2 0.0 NE 4.8 0.0
08:25 24.7 65.0 1021.2 0.0 E 6.4 0.0
08:30 24.9 64.0 1021.1 1.6 ENE 6.4 0.0
08:35 25.3 61.0 1021.2 1.6 ENE 4.8 0.0
08:40 25.3 58.0 1021.1 6.4 WNW 8.0 0.0
08:45 25.4 53.0 1021.0 4.8 WNW 8.0 0.0
08:50 25.5 53.0 1021.0 1.6 WNW 8.0 0.0
08:55 25.6 55.0 1020.9 1.6 WNW 8.0 0.0
09:00 25.7 53.0 1020.9 1.6 WSW 6.4 0.0
09:05 25.7 55.0 1020.9 1.6 WSW 6.4 0.0
09:10 25.9 55.0 1020.8 1.6 WNW 6.4 0.0
09:15 26.1 56.0 1020.8 1.6 S 6.4 0.0
09:20 26.3 56.0 1020.8 1.6 WSW 4.8 0.0
09:25 26.7 55.0 1020.8 1.6 W 3.2 0.0
09:30 26.8 51.0 1020.9 3.2 W 4.8 0.0
09:35 26.9 52.0 1020.8 6.4 SW 8.0 0.0
09:40 26.7 54.0 1020.8 0.0 WSW 11.3 0.0
09:45 26.9 53.0 1020.8 3.2 WNW 6.4 0.0
09:50 26.8 53.0 1020.8 1.6 W 11.3 0.0
09:55 26.8 53.0 1020.7 3.2 WNW 11.3 0.0
10:00 27.0 53.0 1020.7 1.6 WNW 8.0 0.0
10:05 27.0 52.0 1020.7 4.8 W 8.0 0.0
10:10 27.1 53.0 1020.6 1.6 NW 8.0 0.0
10:15 27.3 51.0 1020.6 1.6 NW 8.0 0.0
10:20 27.5 51.0 1020.7 0.0 WNW 6.4 0.0
10:25 27.6 49.0 1020.7 1.6 WNW 6.4 0.0
10:30 28.0 50.0 1020.6 0.0 WNW 8.0 0.0
10:35 28.2 48.0 1020.5 6.4 NE 8.0 0.0
10:40 28.0 48.0 1020.5 1.6 NE 12.9 0.0
10:45 28.1 49.0 1020.5 1.6 WNW 12.9 0.0
10:50 28.1 50.0 1020.4 1.6 WNW 6.4 0.0
10:55 28.3 46.0 1020.4 1.6 SSW 6.4 0.0
11:00 28.5 46.0 1020.3 1.6 SSW 6.4 0.0
11:05 28.7 44.0 1020.3 6.4 ESE 12.9 0.0
11:10 28.8 42.0 1020.3 3.2 WNW 16.1 0.0
11:15 29.0 41.0 1020.2 14.5 WNW 16.1 0.0
11:20 28.9 43.0 1020.1 6.4 WNW 14.5 0.0
11:25 28.9 43.0 1020.0 4.8 WNW 17.7 0.0
11:30 29.1 41.0 1020.0 3.2 W 14.5 0.0
11:35 29.2 41.0 1019.9 3.2 SE 14.5 0.0
11:40 29.4 44.0 1019.9 8.0 WNW 12.9 0.0
11:45 29.3 39.0 1019.9 17.7 SW 17.7 0.0
11:50 29.2 39.0 1019.7 12.9 E 17.7 0.0
11:55 29.4 41.0 1019.8 9.7 SSE 14.5 0.0
12:00 29.4 41.0 1019.7 1.6 WNW 14.5 0.0
12:05 29.6 39.0 1019.7 6.4 SSW 11.3 0.0
12:10 29.6 39.0 1019.6 3.2 S 11.3 0.0
12:15 29.6 40.0 1019.6 3.2 WSW 14.5 0.0
12:20 29.6 40.0 1019.4 3.2 ENE 14.5 0.0
12:25 29.9 40.0 1019.4 4.8 ENE 9.7 0.0
12:30 30.3 39.0 1019.5 4.8 SSE 11.3 0.0
12:35 30.3 39.0 1019.4 4.8 WSW 11.3 0.0
12:40 30.5 42.0 1019.3 1.6 WNW 11.3 0.0
12:45 30.6 41.0 1019.3 1.6 S 11.3 0.0
12:50 30.7 41.0 1019.2 6.4 SW 8.0 0.0
12:55 30.4 39.0 1019.2 1.6 WNW 12.9 0.0
13:00 30.3 39.0 1019.0 6.4 WNW 14.5 0.0
13:05 30.4 41.0 1019.0 0.0 WNW 14.5 0.0
13:10 30.6 39.0 1019.0 1.6 E 16.1 0.0
13:15 30.4 39.0 1019.0 6.4 SSW 16.1 0.0
13:20 30.4 40.0 1018.9 1.6 ESE 11.3 0.0
13:25 30.4 40.0 1018.8 0.0 W 11.3 0.0
13:30 30.6 39.0 1018.6 3.2 SSW 9.7 0.0
13:35 30.7 37.0 1018.6 4.8 S 14.5 0.0
13:40 30.5 37.0 1018.6 8.0 ESE 12.9 0.0
13:45 30.4 38.0 1018.5 3.2 E 12.9 0.0
13:50 30.8 39.0 1018.4 3.2 WSW 8.0 0.0
13:55 30.9 38.0 1018.4 6.4 SSW 17.7 0.0
14:00 30.9 39.0 1018.3 3.2 SE 17.7 0.0
14:05 31.1 37.0 1018.3 9.7 SSE 12.9 0.0
14:10 31.0 37.0 1018.3 4.8 ENE 12.9 0.0
14:15 30.9 39.0 1018.2 6.4 WNW 12.9 0.0
14:20 31.3 37.0 1018.2 6.4 SW 12.9 0.0
14:25 31.3 37.0 1018.1 4.8 SSE 8.0 0.0
14:30 31.3 36.0 1018.1 4.8 S 9.7 0.0
14:35 31.2 36.0 1018.0 11.3 E 11.3 0.0
14:40 30.8 37.0 1017.9 9.7 NE 14.5 0.0
14:45 30.7 38.0 1017.8 3.2 ESE 14.5 0.0
14:50 30.9 37.0 1017.8 8.0 SSW 12.9 0.0
14:55 30.9 42.0 1017.8 12.9 SSE 14.5 0.0
15:00 30.5 42.0 1017.8 16.1 S 22.5 0.0
15:05 30.3 42.0 1017.8 9.7 SSE 22.5 0.0
15:05 30.3 41.0 1017.7 11.3 SSE 22.5 0.0
15:15 30.2 42.0 1017.6 11.3 SSE 27.4 0.0
15:20 30.3 41.0 1017.6 9.7 ESE 22.5 0.0
15:25 30.4 39.0 1017.6 6.4 S 19.3 0.0
15:30 30.3 39.0 1017.5 20.9 SSE 22.5 0.0
15:35 30.2 40.0 1017.5 8.0 SSE 22.5 0.0
15:40 30.2 40.0 1017.5 11.3 S 22.5 0.0
15:45 30.3 40.0 1017.4 6.4 SSE 16.1 0.0
15:50 30.3 39.0 1017.3 9.7 S 19.3 0.0
15:55 30.1 39.0 1017.3 14.5 S 25.7 0.0
16:00 30.1 40.0 1017.3 9.7 S 25.7 0.0
16:05 29.9 39.0 1017.4 6.4 SSE 24.1 0.0
16:10 29.9 39.0 1017.3 11.3 SSW 24.1 0.0
16:15 29.8 39.0 1017.3 19.3 SE 24.1 0.0
Màxima 31.4 90.0 1022.0 20.9 SSE 27.4 0.0
Mínima 13.9 36.0 1017.3
Total 0.0